TimeCDT,TemperatureF,Dew PointF,Humidity,Sea Level PressureIn,VisibilityMPH,Wind Direction,Wind SpeedMPH,Gust SpeedMPH,PrecipitationIn,Events,Conditions,WindDirDegrees,DateUTC
12:14 AM,19.4,12.2,74,29.96,10.0,Calm,Calm,-,N/A,,Clear,0,2013-04-24 05:14:00
12:33 AM,23.0,12.2,63,29.96,10.0,Calm,Calm,-,N/A,,Clear,0,2013-04-24 05:33:00
12:53 AM,24.8,10.4,54,29.96,10.0,Calm,Calm,-,N/A,,Clear,0,2013-04-24 05:53:00
1:13 AM,24.8,10.4,54,29.96,10.0,Calm,Calm,-,N/A,,Clear,0,2013-04-24 06:13:00
1:33 AM,24.8,10.4,54,29.96,10.0,Calm,Calm,-,N/A,,Clear,0,2013-04-24 06:33:00
1:53 AM,26.6,10.4,51,29.95,10.0,NW,3.5,-,N/A,,Clear,320,2013-04-24 06:53:00
2:13 AM,26.6,10.4,51,29.94,10.0,NW,4.6,-,N/A,,Clear,310,2013-04-24 07:13:00
2:33 AM,26.6,12.2,55,29.94,10.0,NW,4.6,-,N/A,,Clear,320,2013-04-24 07:33:00
2:53 AM,26.6,12.2,55,29.93,10.0,Calm,Calm,-,N/A,,Clear,0,2013-04-24 07:53:00
3:13 AM,26.6,12.2,55,29.93,10.0,NNW,3.5,-,N/A,,Clear,330,2013-04-24 08:13:00
3:33 AM,26.6,12.2,55,29.93,10.0,WNW,3.5,-,N/A,,Clear,300,2013-04-24 08:33:00
3:53 AM,26.6,12.2,55,29.93,10.0,NW,3.5,-,N/A,,Clear,310,2013-04-24 08:53:00
4:13 AM,26.6,12.2,55,29.93,10.0,NW,3.5,-,N/A,,Clear,310,2013-04-24 09:13:00
4:33 AM,26.6,12.2,55,29.92,10.0,Calm,Calm,-,N/A,,Clear,0,2013-04-24 09:33:00
4:53 AM,24.8,12.2,59,29.93,10.0,Calm,Calm,-,N/A,,Clear,0,2013-04-24 09:53:00
5:13 AM,21.2,12.2,68,29.93,10.0,Calm,Calm,-,N/A,,Clear,0,2013-04-24 10:13:00
5:33 AM,19.4,10.4,68,29.93,10.0,Calm,Calm,-,N/A,,Clear,0,2013-04-24 10:33:00
5:53 AM,19.4,10.4,68,29.92,10.0,Calm,Calm,-,N/A,,Clear,0,2013-04-24 10:53:00
6:13 AM,19.4,12.2,74,29.92,10.0,Calm,Calm,-,N/A,,Clear,0,2013-04-24 11:13:00
6:33 AM,21.2,12.2,68,29.93,10.0,Calm,Calm,-,N/A,,Clear,0,2013-04-24 11:33:00
6:53 AM,24.8,12.2,59,29.92,10.0,Calm,Calm,-,N/A,,Clear,0,2013-04-24 11:53:00
7:13 AM,26.6,12.2,55,29.92,10.0,Calm,Calm,-,N/A,,Clear,0,2013-04-24 12:13:00
7:33 AM,30.2,14.0,51,29.92,10.0,Calm,Calm,-,N/A,,Clear,0,2013-04-24 12:33:00
7:53 AM,33.8,15.8,48,29.93,10.0,Calm,Calm,-,N/A,,Clear,0,2013-04-24 12:53:00
8:13 AM,35.6,15.8,44,29.93,10.0,Calm,Calm,-,N/A,,Clear,0,2013-04-24 13:13:00
8:33 AM,37.4,15.8,41,29.92,10.0,WNW,4.6,-,N/A,,Scattered Clouds,300,2013-04-24 13:33:00
8:53 AM,37.4,17.6,45,29.92,10.0,WNW,4.6,-,N/A,,Overcast,290,2013-04-24 13:53:00
9:13 AM,41.0,15.8,36,29.91,10.0,West,5.8,-,N/A,,Overcast,280,2013-04-24 14:13:00
9:33 AM,41.0,15.8,36,29.91,10.0,Calm,Calm,-,N/A,,Scattered Clouds,0,2013-04-24 14:33:00
9:53 AM,42.8,14.0,31,29.90,10.0,West,3.5,-,N/A,,Clear,280,2013-04-24 14:53:00
10:13 AM,42.8,14.0,31,29.89,10.0,Calm,Calm,-,N/A,,Clear,0,2013-04-24 15:13:00
10:33 AM,42.8,14.0,31,29.89,10.0,WNW,3.5,-,N/A,,Scattered Clouds,290,2013-04-24 15:33:00
10:53 AM,42.8,12.2,29,29.88,10.0,West,4.6,-,N/A,,Clear,280,2013-04-24 15:53:00
11:13 AM,42.8,14.0,31,29.88,10.0,SW,5.8,-,N/A,,Scattered Clouds,220,2013-04-24 16:13:00
11:33 AM,42.8,12.2,29,29.88,10.0,WSW,5.8,-,N/A,,Scattered Clouds,250,2013-04-24 16:33:00
11:55 AM,41.0,15.8,36,29.87,10.0,South,13.8,-,N/A,,Scattered Clouds,180,2013-04-24 16:55:00
12:13 PM,41.0,15.8,36,29.87,10.0,South,8.1,-,N/A,,Clear,180,2013-04-24 17:13:00
12:33 PM,41.0,15.8,36,29.87,10.0,South,10.4,17.3,N/A,,Clear,180,2013-04-24 17:33:00
12:53 PM,41.0,15.8,36,29.86,10.0,South,8.1,-,N/A,,Clear,170,2013-04-24 17:53:00
1:13 PM,42.8,15.8,34,29.85,10.0,South,9.2,-,N/A,,Clear,170,2013-04-24 18:13:00
1:33 PM,42.8,12.2,29,29.85,10.0,South,9.2,-,N/A,,Clear,190,2013-04-24 18:33:00
1:53 PM,42.8,15.8,34,29.84,10.0,South,6.9,-,N/A,,Clear,190,2013-04-24 18:53:00
2:13 PM,42.8,15.8,34,29.84,10.0,SSE,9.2,-,N/A,,Clear,160,2013-04-24 19:13:00
2:33 PM,42.8,14.0,31,29.83,10.0,SSW,12.7,-,N/A,,Clear,200,2013-04-24 19:33:00
2:53 PM,41.0,15.8,36,29.83,10.0,South,11.5,-,N/A,,Clear,180,2013-04-24 19:53:00
3:13 PM,39.2,15.8,39,29.83,10.0,South,10.4,-,N/A,,Clear,190,2013-04-24 20:13:00
3:33 PM,-9999,-9999,N/A,-9999,10.0,SSW,9.2,21.9,N/A,,Scattered Clouds,200,2013-04-24 20:33:00
3:53 PM,-9999,-9999,N/A,-9999,10.0,SW,10.4,-,N/A,,Scattered Clouds,220,2013-04-24 20:53:00
4:13 PM,41.0,17.6,39,29.82,10.0,SSW,13.8,-,N/A,,Scattered Clouds,200,2013-04-24 21:13:00
4:33 PM,39.2,19.4,45,29.83,10.0,SSW,13.8,18.4,N/A,,Scattered Clouds,210,2013-04-24 21:33:00
4:53 PM,37.4,21.2,52,29.83,10.0,SSW,11.5,-,N/A,,Scattered Clouds,200,2013-04-24 21:53:00
5:13 PM,35.6,23.0,60,29.83,10.0,SSW,9.2,-,N/A,,Scattered Clouds,210,2013-04-24 22:13:00
5:33 PM,35.6,24.8,65,29.83,10.0,SSW,5.8,-,N/A,,Scattered Clouds,200,2013-04-24 22:33:00
5:53 PM,35.6,24.8,65,29.83,10.0,SW,5.8,-,N/A,,Scattered Clouds,220,2013-04-24 22:53:00
6:13 PM,35.6,26.6,70,29.83,10.0,SSW,3.5,-,N/A,,Clear,210,2013-04-24 23:13:00
6:33 PM,35.6,26.6,70,29.83,10.0,SW,4.6,-,N/A,,Scattered Clouds,230,2013-04-24 23:33:00
6:53 PM,35.6,26.6,70,29.84,10.0,SSW,4.6,-,N/A,,Mostly Cloudy,210,2013-04-24 23:53:00
7:13 PM,35.6,26.6,70,29.83,10.0,Calm,Calm,-,N/A,,Light Drizzle,0,2013-04-25 00:13:00
7:33 PM,33.8,26.6,75,29.84,10.0,Calm,Calm,-,N/A,,Mostly Cloudy,0,2013-04-25 00:33:00
7:53 PM,33.8,26.6,75,29.84,10.0,Calm,Calm,-,N/A,,Overcast,0,2013-04-25 00:53:00
8:13 PM,33.8,26.6,75,29.85,10.0,Calm,Calm,-,N/A,,Overcast,0,2013-04-25 01:13:00
8:33 PM,33.8,24.8,70,29.85,10.0,Calm,Calm,-,N/A,Snow,Light Snow,0,2013-04-25 01:33:00
8:53 PM,33.8,24.8,70,29.86,10.0,Calm,Calm,-,N/A,,Overcast,0,2013-04-25 01:53:00
9:53 PM,28.4,23.0,80,29.87,10.0,Calm,Calm,-,N/A,,Clear,0,2013-04-25 02:53:00
10:13 PM,28.4,23.0,80,29.87,10.0,Calm,Calm,-,N/A,,Clear,0,2013-04-25 03:13:00
10:33 PM,28.4,23.0,80,29.87,10.0,Calm,Calm,-,N/A,,Clear,0,2013-04-25 03:33:00
10:53 PM,28.4,24.8,86,29.88,10.0,Calm,Calm,-,N/A,,Clear,0,2013-04-25 03:53:00
11:13 PM,28.4,24.8,86,29.88,10.0,Calm,Calm,-,N/A,,Clear,0,2013-04-25 04:13:00
11:33 PM,28.4,24.8,86,29.88,10.0,NW,3.5,-,N/A,,Clear,310,2013-04-25 04:33:00
11:53 PM,28.4,24.8,86,29.88,10.0,Calm,Calm,-,N/A,,Clear,0,2013-04-25 04:53:00